Location: Kershaw
(34.5481°N, 80.5823°W)
Time: 16:10:22
(UTC+00:00)

Vanguard 1 Rocket - Pass Details

Date: 08 October 2022
Orbit: 650 x 4225 km, 34.3° (Epoch: 08 December)

Event Time Altitude Azimuth Distance (km) Brightness Sun altitude
Rises 04:09:30 0° 282° (WNW) 7,229 12.3 -58.1°
Reaches altitude 10° 04:15:09 10° 281° (W) 5,660 11.6 -58.6°
Enters shadow 04:21:20 26° 278° (W) 3,829 10.5 -59.2°
Maximum altitude 04:29:52 70° 202° (SSW) 1,744 - -59.9°
Drops below altitude 10° 04:37:11 10° 120° (ESE) 2,973 - -60.3°
Sets 04:39:16 0° 117° (ESE) 3,682 - -60.5°
